Volver al catálogo

STARLINK-34424

ActivoComunicacionesVLEO
NORAD 64295·PAYLOAD·🇺🇸 United States

Lanzado Jun 8, 2025 desde Vandenberg Space Force Base

Loading…

Próximos Pases (próximas 24 horas)

TLE

ActualizadoSource: CelesTrak SupGP

Época: Sep 14, 2026, 20:42 UTC

1 64295C 25123E   26257.86298611  .00022509  00000+0  78315-3 0  2573
2 64295  70.0005  75.7557 0003293 273.8634 244.6274 15.29561601    12

Sigue STARLINK-34424 en tiempo real con AllMySat

Download on the App Store